#timestamp,LO_Frequency,Hit,StdDev 
1514376015.6,286046989.7,N
1514376035.4,286046984.2,N
1514376055.2,286046979.6,N
1514376075.1,286046976.0,N
1514376076.0,286046976.0,N
1514376095.8,286046971.0,N
1514376115.6,286046968.1,N
1514376135.5,286046962.9,N
1514376155.3,286046960.3,N
1514376175.2,286046956.2,N
1514376195.9,286046952.5,N
1514376215.7,286046947.3,N
1514376235.6,286046942.7,N
1514376255.4,286046937.6,N
1514376275.3,286046935.2,N
1514376295.1,286046929.9,N
1514376296.0,286046929.9,N
1514376315.8,286046924.8,N
1514376335.7,286046920.2,N
1514376355.5,286046919.5,N
1514376375.4,286046914.2,N
1514376395.2,286046909.4,Y
1514376415.0,286046941.8,P
1514376415.9,286046941.8,P
1514376435.8,286046936.7,P
1514376455.6,286046931.8,Y
1514376475.5,286046981.7,P
1514376495.3,286046978.8,N
1514376515.1,286046973.4,N
1514376535.9,286046968.1,N
1514376555.7,286046967.3,N
1514376575.5,286046961.4,Y
1514376595.4,286046993.2,P
1514376615.2,286046985.3,N
1514376635.1,286046984.0,N
1514376636.0,286046984.0,N
1514376655.8,286046984.6,N
1514376675.6,286046981.8,N
1514376695.5,286046975.7,Y
1514376715.3,286046990.5,P
1514376735.2,286046989.3,N
1514376755.9,286046987.7,P
1514376775.7,286046984.5,Y
1514376795.6,286046994.2,P
1514376815.4,286046994.7,N
1514376835.3,286046992.1,N
1514376855.1,286046991.3,Y
1514376875.8,286046993.7,P
1514376895.7,286046993.6,P
1514376915.5,286046991.9,P
1514376935.4,286046990.1,Y
1514376955.2,286046997.1,P
1514376975.0,286046995.7,N
1514376975.9,286046995.7,N
1514376995.8,286046997.6,N
1514377015.6,286046993.6,Y
1514377035.5,286046997.9,P
1514377055.3,286046995.1,P
1514377075.1,286046995.4,P
1514377095.9,286046990.5,Y
1514377115.7,286046992.6,P
1514377135.6,286046992.5,P
1514377155.4,286046992.5,P
1514377175.2,286046988.5,Y
1514377195.1,286046998.0,P
1514377196.0,286046998.0,N
1514377215.8,286046995.4,N
1514377235.7,286046994.0,Y
1514377255.5,286046995.7,P
1514377275.3,286046993.9,P
1514377295.2,286046994.7,P
1514377315.0,286046992.0,Y
1514377315.9,286046992.0,P
1514377335.7,286046997.4,N
1514377355.6,286046998.0,N
1514377375.4,286046993.4,N
1514377395.3,286046996.2,N
1514377415.1,286046994.2,N
1514377435.8,286046992.2,Y
1514377455.7,286046995.9,P
1514377475.5,286046996.0,P
1514377495.4,286046993.5,P
1514377515.2,286046993.8,Y
1514377535.0,286046998.6,P
1514377535.9,286046998.6,N
1514377555.8,286047000.8,N
1514377575.6,286046997.0,N
1514377595.5,286046996.1,N
1514377615.3,286046993.7,Y
1514377635.1,286046996.3,P
1514377655.9,286046993.4,P
1514377675.7,286046996.4,N
1514377695.6,286046996.2,N
1514377715.4,286046993.8,Y
1514377735.2,286046999.0,P
1514377755.1,286047000.8,N
1514377756.0,286047000.8,N
1514377775.8,286046999.1,N
1514377795.7,286046998.3,N
1514377815.5,286046996.2,N
1514377835.3,286046995.1,N
1514377855.2,286046996.0,N
1514377875.0,286046993.9,Y
1514377875.9,286046993.9,P
1514377895.8,286046995.0,N
1514377915.6,286046995.0,N
1514377935.4,286046997.6,N
1514377955.3,286046993.7,Y
1514377975.1,286046998.3,P
1514377995.9,286046997.9,N
1514378015.7,286046993.9,P
1514378035.5,286046993.7,Y
1514378055.4,286046996.6,P
1514378075.2,286046997.6,P
1514378095.0,286046995.7,P
1514378096.0,286046995.7,Y
1514378115.8,286046999.3,P
1514378135.6,286047001.9,N
1514378155.5,286047002.7,N
1514378175.3,286047001.2,N
1514378195.1,286046998.8,N
1514378215.9,286046998.6,N
1514378235.7,286046996.5,N
1514378255.6,286046996.8,N
1514378275.4,286046993.6,N
1514378295.2,286046994.6,N
1514378315.1,286046992.7,N
1514378316.0,286046992.7,N
1514378335.8,286046992.1,N
1514378355.7,286046993.2,N
1514378375.5,286046992.9,N
1514378395.3,286046992.8,N
1514378415.2,286046994.3,N
1514378435.0,286046992.5,N
1514378435.9,286046992.5,N
1514378455.8,286046990.1,N
1514378475.6,286046994.4,N
1514378495.4,286046990.9,N
1514378515.3,286046989.6,N
1514378535.1,286046985.7,Y
1514378555.9,286046989.4,P
1514378575.7,286046985.4,P
1514378595.5,286046985.0,P
1514378615.4,286046982.3,Y
1514378635.2,286046996.1,P
1514378655.0,286046993.6,N
1514378655.9,286046993.6,N
1514378675.8,286046993.2,N
1514378695.6,286046991.1,Y
1514378715.5,286046996.0,P
1514378735.3,286046993.6,P
1514378755.1,286046993.2,P
1514378775.9,286046993.0,Y
1514378795.7,286046997.6,P
1514378815.6,286046993.4,P
1514378835.4,286046992.6,P
1514378855.2,286046993.0,Y
1514378875.1,286046994.9,P
1514378876.0,286047011.9,P
1514378895.8,286046995.6,N
1514378915.7,286046993.5,N
1514378935.5,286046994.3,N
1514378955.3,286046994.5,N
1514378975.2,286046994.7,N
1514378995.0,286046990.7,N
1514378995.9,286046990.7,N
1514379015.8,286046991.0,N
1514379035.6,286046989.2,N
1514379055.4,286046988.1,N
1514379075.3,286046986.0,N
1514379095.1,286046986.0,N
1514379115.9,286046983.9,N
1514379135.7,286046984.1,N
1514379155.5,286046982.1,N
1514379175.4,286046982.1,N
1514379195.2,286046982.1,N
1514379215.0,286046985.6,N
1514379216.0,286046985.6,N
1514379235.8,286046987.8,N
1514379255.6,286046987.8,N
1514379275.5,286046986.7,N
1514379295.3,286046986.0,N
1514379315.1,286046982.2,N
1514379335.9,286046982.7,N
1514379355.7,286046986.3,N
1514379375.6,286046985.0,N
1514379395.4,286046984.4,N
1514379415.2,286046984.6,N
1514379435.1,286046982.5,N
1514379436.0,286046982.5,Y
1514379455.8,286046997.1,P
1514379475.7,286046997.0,N
1514379495.5,286046995.8,N
1514379515.3,286046996.4,N
1514379535.2,286046996.1,N
1514379555.0,286046995.4,N
1514379555.9,286046995.4,N
1514379575.8,286046995.1,N
1514379595.6,286046995.1,N
